Regional Weather Roundup
Issued by NWS

Home | Current Version | Previous Version | Text Only | Print | Product List | Glossary Off
Versions: 1 2 3 4 5 6 7 8 9 10 11 12 13 14 15 16 17 18 19 20 21 22 23 24 25 26 27 28 29 30 31 32 33 34 35 36 37 38 39 40 41 42 43 44 45 46 47 48 49 50

560
ASUS43 KIND 202000
RWRIN

WEATHER ROUNDUP FOR INDIANA
NATIONAL WEATHER SERVICE INDIANAPOLIS IN
400 PM EDT SUN AUG 20 2017

NOTE: "FAIR" INDICATES FEW OR NO CLOUDS BELOW 12,000 FEET WITH NO
SIGNIFICANT WEATHER AND/OR OBSTRUCTIONS TO VISIBILITY.

* - STATION DOES NOT REPORT WEATHER SUCH AS PRECIPITATION OR FOG.

+ - STATION NOT QUALITY CONTROLLED BY THE NATIONAL WEATHER SERVICE.
    USE DATA WITH CAUTION...ESPECIALLY DEWPOINT AND RELATIVE
    HUMIDITY OBSERVATIONS.

INZ001>003-010>013-019-020-202100-
NORTHWEST INDIANA

CITY           SKY/WX    TMP DP  RH WIND       PRES   REMARKS
GARY /AIRPORT/ PTSUNNY   88  61  40 S6        30.03S
MONTICELLO +   MOSUNNY   87  60  40 S6        30.04S

$$

LMZ046-743>745-202100-
SOUTHERN LAKE MICHIGAN

STATION/POSITION TIME  TEMP    WIND        PRES    WAVE
                       AIR SEA DIR/SP/G            HT
                 (UTC) (F)     (DEG/KT/KT) (MB)    (FT)
BURNS HARBOR     1940   79      10/  5/  9 1016.9F
MICHIGAN CITY    1930   79     360/  6/  7   N/A
5NW MICH CITY    1950   78 77   40/  4/  4   N/A     1

$$

INZ004-005-014>016-021>024-202100-
NORTH CENTRAL INDIANA

CITY           SKY/WX    TMP DP  RH WIND       PRES   REMARKS
ELKHART        PTSUNNY   84  61  45 S6        30.04F
GOSHEN         PTSUNNY   83  63  50 SW7       30.04F
PERU/GRISSOM   PTSUNNY   86  67  52 W5        30.04F
SOUTH BEND     CLOUDY    86  62  44 VRB3      30.04F

$$

INZ006>009-017-018-025>027-202100-
NORTHEAST INDIANA

CITY           SKY/WX    TMP DP  RH WIND       PRES   REMARKS
FORT WAYNE     CLOUDY    86  64  47 SW9       30.05F

$$

INZ028-029-035-036-043>045-051>053-202100-
WEST CENTRAL INDIANA

CITY           SKY/WX    TMP DP  RH WIND       PRES   REMARKS
LAFAYETTE      PTSUNNY   87  67  51 S9        30.03F
TERRE HAUTE    MOSUNNY   88  69  53 SE5       30.03F

$$

INZ030>032-037>040-046>048-054>057-064-065-202100-
CENTRAL INDIANA

CITY           SKY/WX    TMP DP  RH WIND       PRES   REMARKS
COLUMBUS       PTSUNNY   90  57  33 SW6       30.04F
GREENWOOD *+   MOSUNNY   86  62  45 W3        30.05F
INDIANAPOLIS   CLOUDY    91  59  33 W6        30.03F
-EAGLE CREEK   PTSUNNY   90  60  36 SW7       30.03F
KOKOMO +       MOSUNNY   86  65  49 SW8       30.06F
MT COMFORT *+  MOSUNNY   88  64  45 W7        30.06F
SHELBYVILLE    MOSUNNY   88  63  43 S7        30.04F

$$

INZ033-034-041-042-049-050-058-059-202100-
EAST CENTRAL INDIANA

CITY           SKY/WX    TMP DP  RH WIND       PRES   REMARKS
MUNCIE         CLOUDY    87  63  44 VRB3      30.05F
RICHMOND +     MOSUNNY   84  66  54 SW7       30.08F

$$

INZ060-061-067>069-081>083-085>088-202100-
SOUTHWEST INDIANA

CITY           SKY/WX    TMP DP  RH WIND       PRES   REMARKS
EVANSVILLE     SUNNY     93  67  42 SW13      30.02F HX  96
HUNTINGBURG +  MOSUNNY   89  73  59 S10       30.04F HX  97

$$

INZ062-063-066-070>080-084-089>092-202100-
SOUTH CENTRAL AND SOUTHEAST INDIANA

CITY           SKY/WX    TMP DP  RH WIND       PRES   REMARKS
BLOOMINGTON    MOSUNNY   89  63  41 SE6       30.04F
MADISON *+     PTSUNNY   90  61  37 SE8       30.08F
SEYMOUR +      CLOUDY    91  64  40 CALM      30.04F

$$





USA.gov is the U.S. government's official web portal to all federal, state and local government web resources and services.